Flag for Switzerland Weather past 2 weeks in Pully, Vaud, Switzerland

Now
53 °F

Cool.


Feels Like: 50 °F
Forecast: 48 / 65 °F
Wind: 8 mph from Southeast

Location: Aigle

Current Time: Apr 26, 2015 at 7:40:53 AM

Latest Report: Apr 26, 2015 at 7:00 AM


Visibility: N/A

Pressure: 29.87 "Hg

Humidity: 86%

Dew point: 49 °F

Location of PullyLocation

Historic Weather in Pully — Graph

°F

Pully temperature yesterday

Maximum temperature yesterday: 65 °F (at 5:00 PM)
Minimum temperature yesterday: 48 °F (at 3:00 AM)
Average temperature yesterday: 56 °F

Past Weeks' High & Low Weather Summary

 TemperatureHumidityPressure
High72 °F (Apr 15, 6:00 PM)98% (Apr 18, 6:00 AM)30.47 "Hg (Apr 18, 6:00 AM)
Low38 °F (Apr 20, 7:00 AM)26% (Apr 15, 6:00 PM)29.84 "Hg (Apr 24, 6:00 PM)
Average55 °F67%30.14 "Hg
* Reported Apr 11 6:00 AM — Apr 26 6:00 AM, Pully, Weather by CustomWeather, © 2015

Note: Actual official high and low records may vary slightly from our data, if they occured in-between our weather recording intervals... More about our weather records

Advertising

Pully weather history for previous 24 hours

 ConditionsComfort  
Time TempWeatherWind HumidityBarometerVisibility
6:00 AM
Sun, Apr 26
52 °FCool.5 mph90%29.88 "HgN/A
4:00 AM52 °FCool.5 mph89%29.92 "HgN/A
3:00 AM51 °FCool.1 mph93%29.94 "HgN/A
2:00 AM52 °FCool.6 mph93%29.96 "HgN/A
1:00 AM52 °FCool.5 mph92%29.98 "HgN/A
12:00 AM52 °FCool.8 mph91%29.97 "HgN/A
11:00 PM
Sat, Apr 25
52 °FCool.9 mph89%29.98 "HgN/A
10:00 PM52 °FCool.6 mph90%29.99 "HgN/A
9:00 PM53 °FCool.7 mph91%29.99 "HgN/A
8:00 PM55 °FOvercast.16 mph84%29.93 "Hg9 mi
7:00 PM59 °FCool.14 mph77%29.88 "HgN/A
6:00 PM61 °FCool.9 mph65%29.87 "HgN/A
5:00 PM65 °FOvercast.3 mph57%29.85 "Hg9 mi
4:00 PM64 °FMild.6 mph57%29.87 "HgN/A
3:00 PM63 °FMild.3 mph60%29.90 "HgN/A
2:00 PM61 °FOvercast.12 mph66%29.92 "Hg9 mi
1:00 PM62 °FRefreshingly cool.7 mph54%29.91 "HgN/A
12:00 PM62 °FRefreshingly cool.6 mph51%29.91 "HgN/A
11:00 AM59 °FOvercast.8 mph62%29.91 "Hg10 mi
10:00 AM58 °FRefreshingly cool.2 mph55%29.93 "HgN/A
9:00 AM56 °FCool.6 mph67%29.92 "HgN/A
8:00 AM56 °FOvercast.3 mph64%29.92 "Hg11 mi
7:00 AM54 °FCool.7 mph63%29.91 "HgN/A
Weather by CustomWeather, © 2015

See weather overviewHow to use our weather pages